Regional Weather Roundup
Issued by NWS Upton, NY

Current Version | Previous Version | Graphics & Text | Print | Product List | Glossary Off
Versions: 1 2 3 4 5 6 7 8 9 10 11 12 13 14 15 16 17 18 19 20 21 22 23 24 25 26 27 28 29 30 31 32 33 34 35 36 37 38 39 40 41 42 43 44 45 46 47 48 49 50

742
ASUS41 KOKX 231105
RWROKX

Regional Weather Roundup
National Weather Service New York NY
600 AM EST FRI FEB 23 2018

Note: "FAIR" indicates few or no clouds below 12,000 feet with no
significant weather and/or obstructions to visibility.

NYZ071-072-176-178-NJZ106-104-231200-
New York City Metro Area

CITY           SKY/WX    TMP DP  RH WIND       PRES   REMARKS
Central Park   CLOUDY    36  32  85 NE10      30.65F WCI  28
Bronx Bot Gard   N/A     36  32  87 E7        30.66F WCI  30
Bronx Lehman C NOT AVBL
LaGuardia Arpt CLOUDY    37  32  82 NE12      30.64F WCI  29
Queens College NOT AVBL
Kennedy Intl   CLOUDY    36  33  89 E12       30.64F WCI  28
Breezy Point   NOT AVBL
Brooklyn Coll  NOT AVBL
Staten Island  NOT AVBL
Newark/Liberty CLOUDY    38  32  79 NE9       30.64F WCI  31
Teterboro      CLOUDY    37  32  82 NE8       30.63F WCI  31
$$

NYZ177-179-078>081-231200-
Long Island New York

CITY           SKY/WX    TMP DP  RH WIND       PRES   REMARKS
Jones Beach    NOT AVBL
Wantagh        NOT AVBL
Hempstead        N/A     36  32  87 E3        30.67F
Matinecock Pt  NOT AVBL
Farmingdale    CLOUDY    36  31  82 E6        30.64F WCI  31
MacArthur/ISP  CLOUDY    35  32  88 NE6       30.65F WCI  30
Shirley        CLOUDY    35  32  88 CALM      30.65F
Mt Sinai Harb  NOT AVBL
Westhampton    CLOUDY    36  32  85 NE7       30.67F WCI  30
East Hampton   CLOUDY    34  31  89 NE6       30.66F WCI  29
Southold       NOT AVBL
Montauk          N/A     36  33  89 VRB7      30.68  WCI  30
$$

NYZ052-065-067-231200-
Hudson Valley

CITY           SKY/WX    TMP DP  RH WIND       PRES   REMARKS
White Plains   CLOUDY    33  31  92 NE6       30.62F WCI  28
Larchmont Harb NOT AVBL
Croton On Huds NOT AVBL
Somers         NOT AVBL
Brewster       NOT AVBL
Newburgh       CLOUDY    30  30 100 E7        30.65S FOG     WCI  23
Montgomery     CLOUDY    30  28  92 NE6       30.63F WCI  24
Otisville      NOT AVBL
Warwick        NOT AVBL
Suffern        NOT AVBL
Poughkeepsie   CLOUDY    30  27  88 N5        30.66S WCI  25
Albany         CLOUDY    21  16  81 CALM      30.67F
$$

NJZ001-105-106-008-010-013-015-019>022-104-231200-
New Jersey

CITY           SKY/WX    TMP DP  RH WIND       PRES   REMARKS
Newark/Liberty CLOUDY    38  32  79 NE9       30.64F WCI  31
Teterboro      CLOUDY    37  32  82 NE8       30.63F WCI  31
Caldwell       CLOUDY    35  33  92 E9        30.64F WCI  28
Somerville     CLOUDY    37  34  89 E5        30.61S WCI  33
Linden         CLOUDY    37  32  79 E9        30.64F WCI  31
Perth Amboy    NOT AVBL
Sussex         CLOUDY    32  30  92 NE7       30.62F WCI  26
Andover          N/A     33  32  96 NE7       30.60F WCI  27
Trenton        LGT RAIN  37  34  89 E7        30.61S WCI  32
Millville      LGT RAIN  39  37  92 NE12      30.57F WCI  32
Atlantic City  LGT RAIN  41  39  93 E10       30.59R
Wrightstown    CLOUDY    37  34  87 E7        30.58  WCI  32
Toms River     CLOUDY    38  35  89 NE10      30.63R WCI  31
Belmar         CLOUDY    37  33  85 E14       30.62F WCI  28
$$

PAZ047>061-062-071-231200-
Eastern Pennsylvania

CITY           SKY/WX    TMP DP  RH WIND       PRES   REMARKS
Philadelphia   LGT RAIN  37  35  92 NE8       30.62  FOG     WCI  31
Allentown      MIX PCPN  37  33  85 E7        30.59F WCI  32
Scranton       CLOUDY    36  31  82 E3        30.54F
$$

CTZ002-004>006-009-010-012-RIZ004-006-007-MAZ004-011-015-231200-
Southern New England

 In CT

CITY           SKY/WX    TMP DP  RH WIND       PRES   REMARKS
Bradley Intl   FAIR      29  27  92 N5        30.68R WCI  24
Hartford       FAIR      31  28  89 NE6       30.68F WCI  25
Danbury        CLOUDY    33  30  88 E6        30.65F WCI  28
Wtrbury/Oxford CLOUDY    30  28  92 NE7       30.64F WCI  23
Norwalk Harbor NOT AVBL
Bridgeport     CLOUDY    35  31  85 NE6       30.67F WCI  30
Meriden        FAIR      31  28  89 NE3       30.67F
New Haven      MOCLDY    34  30  85 N6        30.65F WCI  29
Chester        FAIR      32  30  93 NE3       30.65F
Groton         FAIR      33  30  88 NE5       30.68R WCI  29
Willimantic    MOCLDY    32  30  92 CALM      30.69R FOG

 In RI

CITY           SKY/WX    TMP DP  RH WIND       PRES   REMARKS
Providence     FAIR      33  31  92 N7        30.69R WCI  27
Block Island   MOCLDY    35  31  85 NE9       30.68R WCI  28
Westerly       FAIR      33  32  96 CALM      30.69R

In MA

CITY           SKY/WX    TMP DP  RH WIND       PRES   REMARKS
Boston         FAIR      31  28  89 N6        30.70R WCI  25
Worcester      FAIR      25  22  88 NE5       30.64S WCI  19
Westfield      FAIR      26  26 100 N3        30.68S
Provincetown   FAIR      34  29  82 NE8       30.70R WCI  27
Nantucket      FAIR      36  31  82 NE10      30.66S WCI  28
$$

ANZ330-335-338-340-345-350-353-355-231200-
Coastal Marine Observations


STATION/POSITION TIME  SKY/WX   TEMP    WIND        PRES    VSBY  WAVE
                                AIR SEA DIR/SP/G                  HT/PER
                 (UTC)          (F)     (DEG/KT/KT) (MB)    (MI)  (FT/S)
NY Harb Entrance 1050            37 41   60/ 16/ 19 1037.1          5/ 7
20 S Fire Island 1050            40 42   60/ 17/ 21 1036.9          6/ 7
23 SSW Montauk P 1050            38 43   60/ 14/ 16 1038.6          4/ 6
15 E Barnegat Li 1030               42                N/A           7/ 7
Hudson Canyon    1050            43 46   70/ 19/ 23 1035.2          8/ 7
Kings Point      1030            35 38   70/  5/  6 1039.1
Execution Rocks  NOT AVBL
Western LI Sound NOT AVBL
Central LI Sound 1015            36      50/  8/ 10   N/A           1
Robbins Reef     1030            37      60/ 10/ 12 1038.3
$$


>>>>>>>>>>>>>>>>>>>>>>>>>>>> KEY <<<<<<<<<<<<<<<<<<<<<<<<<<<
>                                                          <
>     SKY/WX - Sky Condition/Present Weather               <
>     TMP    - Temperature in Fahrenheit                   <
>     DP     - Dew Point in Fahrenheit                     <
>     RH     - Relative Humidity in Percent                <
>     WIND   - Direction (from) and Speed in MPH           <
>     PRES   - Mean Sea Level Pressure (inches of Hg)      <
>     WCI    - Wind Chill Index                            <
>     VSB    - Visibility in Miles                         <
>     HX     - Heat Index                                  <
>     TC     - Temperature in Celsius                      <
>     VRB    - Varibale Wind Direction                     <
>                                                          <
>>>>>>>>>>>>>>>>>>>>>>>>>>>> KEY <<<<<<<<<<<<<<<<<<<<<<<<<<<




USA.gov is the U.S. government's official web portal to all federal, state and local government web resources and services.